Weather History for KMOD - October, 2014

Change the Weather History Date:

Thursday, October 2, 2014

  Actual Average Record
Temperature  
Mean Temperature 70 °F -  
Max Temperature 89 °F 85 °F 99 °F (2012)
Min Temperature 51 °F 56 °F 41 °F (1950)
Degree Days  
Heating Degree Days 0 0  
Month to date heating degree days 0 0  
Since 1 July heating degree days 1 3  
Cooling Degree Days 5 6  
Month to date cooling degree days 14 12  
Year to date cooling degree days 1742 1624  
Growing Degree Days 20 (Base 50)    
Moisture  
Dew Point 43 °F    
Average Humidity 47    
Maximum Humidity 77    
Minimum Humidity 17    
Precipitation  
Precipitation 0.00 in 0.02 in 1.13 in (1935)
Month to date precipitation 0.00 0.03  
Year to date precipitation 5.81 9.06  
Since 1 July precipitation 0.30 0.31  
Snow  
Snow 0.00 in - - ()
Month to date snowfall 0.0  
Since 1 July snowfall 0.0  
Since 1 September snowfall 0.0  
Snow Depth -    
Sea Level Pressure  
Sea Level Pressure 29.99 in    
Wind  
Wind Speed 3 mph (WSW)    
Max Wind Speed 7 mph    
Max Gust Speed 10 mph    
Visibility 10 miles    
Events      
T = Trace of Precipitation, MM = Missing Value Source: NWS Daily Summary

Daily Weather History Graph

Daily Weather History Graph

Search for Another Location

Airport or City:

Trip Planner

Search our weather history database for the weather conditions in past years. The results will help you decide how hot, cold, wet, or windy it might be!

Date:

Astronomy

Oct. 02, 2014 Rise Set
Actual Time 7:00 AM PDT 6:45 PM PDT
Civil Twilight 6:34 AM PDT 7:11 PM PDT
Nautical Twilight 6:03 AM PDT 7:41 PM PDT
Astronomical Twilight 5:33 AM PDT 8:12 PM PDT
Moon 2:50 PM PDT (10/2) 12:28 AM PDT (10/2)
Length of Visible Light 12h 37m
Length of Day
11h 44m
First Quarter, 61% of the Moon is Illuminated
Oct 2
First Quarter
Oct 8
Full
Oct 15
Last Quarter
Oct 23
New
Oct 30
First Quarter

Hourly Weather History & Observations

Time (PDT) Temp. Dew Point Humidity Pressure Visibility Wind Dir Wind Speed Gust Speed Precip Events Conditions
12:53 AM 64.0 °F 39.9 °F 41% 29.92 in 10.0 mi NNW 4.6 mph - N/A   Clear
1:53 AM 63.0 °F 39.9 °F 43% 29.93 in 10.0 mi NNW 5.8 mph - N/A   Clear
2:53 AM 60.1 °F 43.0 °F 53% 29.94 in 10.0 mi Calm Calm - N/A   Clear
3:53 AM 55.9 °F 45.0 °F 67% 29.95 in 10.0 mi Calm Calm - N/A   Clear
4:53 AM 55.9 °F 48.0 °F 75% 29.96 in 10.0 mi SSW 3.5 mph - N/A   Clear
5:53 AM 53.1 °F 46.0 °F 77% 29.98 in 10.0 mi SE 3.5 mph - N/A   Clear
6:53 AM 53.1 °F 46.9 °F 80% 30.00 in 10.0 mi Calm Calm - N/A   Clear
7:53 AM 54.0 °F 46.9 °F 77% 30.02 in 10.0 mi ESE 4.6 mph - N/A   Clear
8:53 AM 64.0 °F 46.0 °F 52% 30.04 in 9.0 mi SE 3.5 mph - N/A   Clear
9:53 AM 73.0 °F 37.9 °F 28% 30.05 in 10.0 mi Variable 3.5 mph - N/A   Clear
10:53 AM 75.9 °F 37.0 °F 24% 30.04 in 10.0 mi West 5.8 mph - N/A   Clear
11:53 AM 78.1 °F 39.0 °F 25% 30.04 in 10.0 mi Variable 3.5 mph - N/A   Clear
12:53 PM 82.0 °F 37.0 °F 20% 30.02 in 10.0 mi Calm Calm - N/A   Clear
1:53 PM 84.9 °F 37.0 °F 18% 30.00 in 10.0 mi Calm Calm - N/A   Clear
2:53 PM 87.1 °F 37.0 °F 17% 29.99 in 10.0 mi Calm Calm - N/A   Clear
3:53 PM 88.0 °F 37.0 °F 16% 29.97 in 10.0 mi Calm Calm - N/A   Clear
4:53 PM 88.0 °F 39.0 °F 18% 29.96 in 10.0 mi SW 3.5 mph - N/A   Clear
5:53 PM 86.0 °F 44.1 °F 23% 29.97 in 10.0 mi WNW 8.1 mph - N/A   Clear
6:53 PM 79.0 °F 48.0 °F 34% 29.97 in 10.0 mi Calm Calm - N/A   Clear
7:53 PM 75.0 °F 48.9 °F 40% 29.98 in 10.0 mi Calm Calm - N/A   Clear
8:53 PM 71.1 °F 48.9 °F 45% 29.99 in 10.0 mi Calm Calm - N/A   Clear
9:53 PM 71.1 °F 48.0 °F 44% 30.00 in 10.0 mi Calm Calm - N/A   Clear
10:53 PM 66.9 °F 52.0 °F 59% 30.01 in 10.0 mi Calm Calm - N/A   Clear
11:53 PM 66.0 °F 50.0 °F 56% 30.01 in 10.0 mi Calm Calm - N/A   Clear